Location: Maiden
(35.5760°N, 81.2120°W)
Time: 20:38:42
(UTC-04:00)

A-11 Canister half - Pass Details

Date: 17 August 2020
Orbit: 1514 x 1686 km, 47.2° (Epoch: 26 September)

Event Time Altitude Azimuth Distance (km) Brightness Sun altitude
Rises 00:43:53 0° 301° (WNW) 4,867 12.1 -40.0°
Reaches altitude 10° 00:47:09 10° 296° (WNW) 3,898 11.4 -40.2°
Enters shadow 00:53:30 37° 266° (W) 2,381 9.9 -40.4°
